Torna al catalogo

IUS DEB

AttivoHEO
NORAD 26078·DEBRIS·🇺🇸 United States

Lanciato Jul 23, 1999 da Cape Canaveral Space Force Station

Loading…

Prossimi Passaggi (prossime 24 ore)

TLE

AggiornatoSource: Space-Track

Epoca: Sep 13, 2026, 22:47 UTC

1 26078U 99040F   26256.94996061  .00005326  00000-0  74106-3 0  9997
2 26078  28.4068 127.4515 4386647 106.6382 304.8299  6.67322788316983

Traccia IUS DEB in tempo reale con AllMySat

Download on the App Store